TimeCDT,TemperatureF,Dew PointF,Humidity,Sea Level PressureIn,VisibilityMPH,Wind Direction,Wind SpeedMPH,Gust SpeedMPH,PrecipitationIn,Events,Conditions,WindDirDegrees,DateUTC
12:53 AM,55.9,51.1,84,29.95,9.0,NW,5.8,-,N/A,,Clear,320,2012-10-01 05:53:00
1:53 AM,55.0,50.0,83,29.93,10.0,NW,8.1,-,N/A,,Clear,310,2012-10-01 06:53:00
2:53 AM,53.6,46.4,77,30.07,10.0,NW,9.2,-,N/A,,Clear,310,2012-10-01 07:53:00
3:53 AM,53.1,44.1,71,29.95,10.0,NW,11.5,-,N/A,,Clear,320,2012-10-01 08:53:00
4:53 AM,55.0,45.0,69,29.95,10.0,NNW,9.2,-,N/A,,Clear,330,2012-10-01 09:53:00
5:53 AM,54.0,45.0,72,29.98,10.0,NNW,9.2,-,N/A,,Clear,340,2012-10-01 10:53:00
6:53 AM,55.4,44.6,67,30.11,10.0,NW,9.2,-,N/A,,Clear,320,2012-10-01 11:53:00
7:53 AM,57.9,45.0,62,30.02,10.0,North,11.5,-,N/A,,Clear,350,2012-10-01 12:53:00
8:53 AM,60.1,46.0,60,30.05,10.0,North,17.3,-,N/A,,Clear,350,2012-10-01 13:53:00
9:53 AM,64.4,46.4,52,30.17,10.0,North,29.9,38.0,N/A,,Clear,360,2012-10-01 14:53:00
10:53 AM,68.0,46.0,45,30.07,10.0,North,31.1,40.3,N/A,,Clear,10,2012-10-01 15:53:00
11:53 AM,71.1,42.1,35,30.06,10.0,North,34.5,44.9,N/A,,Clear,10,2012-10-01 16:53:00
12:53 PM,69.8,42.8,38,30.20,10.0,North,33.4,43.7,N/A,,Clear,10,2012-10-01 17:53:00
1:53 PM,72.0,42.1,34,30.06,10.0,North,26.5,35.7,N/A,,Clear,10,2012-10-01 18:53:00
2:53 PM,73.0,42.1,33,30.04,10.0,North,24.2,31.1,N/A,,Partly Cloudy,360,2012-10-01 19:53:00
3:53 PM,72.0,39.9,31,30.03,10.0,NNE,19.6,27.6,N/A,,Partly Cloudy,30,2012-10-01 20:53:00
4:53 PM,71.1,41.0,34,30.04,10.0,NNE,18.4,29.9,N/A,,Mostly Cloudy,20,2012-10-01 21:53:00
5:53 PM,68.0,46.0,45,30.04,10.0,ENE,8.1,-,N/A,,Scattered Clouds,70,2012-10-01 22:53:00
6:53 PM,70.0,41.0,35,30.03,10.0,NNE,13.8,-,N/A,,Mostly Cloudy,30,2012-10-01 23:53:00
7:53 PM,63.0,46.0,54,30.05,10.0,NE,9.2,-,N/A,,Partly Cloudy,50,2012-10-02 00:53:00
8:53 PM,57.0,45.0,64,30.08,10.0,NE,9.2,-,N/A,,Clear,40,2012-10-02 01:53:00
9:53 PM,57.9,45.0,62,30.08,10.0,NNE,9.2,-,N/A,,Clear,30,2012-10-02 02:53:00
10:53 PM,55.9,44.1,64,30.08,10.0,NNE,9.2,-,N/A,,Clear,30,2012-10-02 03:53:00
11:53 PM,54.0,44.1,69,30.08,10.0,NNW,5.8,-,N/A,,Clear,340,2012-10-02 04:53:00